Stündliche Wetter Warszewko

Heute, 21 Oktober, Mittwoch

Zeit Temperatur Niederschläge Wind Luftdruck Luftfeuchtigkeit
00:00 +9°C° 0 mm 5 m/S 754 mmHg 69%
01:00 +10°C° 0 mm 4 m/S 753 mmHg 71%
02:00 +10°C° 0 mm 4 m/S 753 mmHg 70%
03:00 +10°C° 0 mm 4 m/S 753 mmHg 70%
04:00 +11°C° 0 mm 4 m/S 752 mmHg 69%
05:00 +10°C° 0 mm 3 m/S 752 mmHg 69%
06:00 +10°C° 0 mm 3 m/S 753 mmHg 70%
07:00 +10°C° 0 mm 3 m/S 753 mmHg 70%
08:00 +11°C° 0 mm 3 m/S 753 mmHg 69%
09:00 +11°C° 0 mm 4 m/S 753 mmHg 69%
10:00 +11°C° 0 mm 4 m/S 752 mmHg 68%
11:00 +12°C° 0 mm 4 m/S 752 mmHg 66%
12:00 +13°C° 0 mm 3 m/S 752 mmHg 65%
13:00 +14°C° 0 mm 3 m/S 752 mmHg 63%
14:00 +14°C° 0 mm 3 m/S 752 mmHg 64%
15:00 +14°C° 0 mm 3 m/S 752 mmHg 66%
16:00 +14°C° 0 mm 3 m/S 751 mmHg 67%
17:00 +13°C° 0 mm 4 m/S 752 mmHg 68%
18:00 +13°C° 0 mm 4 m/S 752 mmHg 69%
19:00 +12°C° 0 mm 4 m/S 752 mmHg 70%
20:00 +12°C° 0 mm 4 m/S 752 mmHg 71%
21:00 +12°C° 0 mm 4 m/S 752 mmHg 71%
22:00 +11°C° 0 mm 4 m/S 752 mmHg 72%
23:00 +12°C° 0 mm 4 m/S 752 mmHg 72%

Morgen, 22 Oktober, Donnerstag

Zeit Temperatur Niederschläge Wind Luftdruck Luftfeuchtigkeit
00:00 +12°C° 0 mm 4 m/S 753 mmHg 71%
01:00 +12°C° 0 mm 3 m/S 753 mmHg 71%
02:00 +12°C° 0 mm 4 m/S 753 mmHg 71%
03:00 +12°C° 0 mm 4 m/S 753 mmHg 71%
04:00 +12°C° 0 mm 4 m/S 753 mmHg 70%
05:00 +12°C° 0 mm 4 m/S 753 mmHg 71%
06:00 +12°C° 0 mm 4 m/S 753 mmHg 72%
07:00 +12°C° 0 mm 4 m/S 753 mmHg 72%
08:00 +13°C° 0 mm 4 m/S 754 mmHg 69%
09:00 +15°C° 0 mm 4 m/S 754 mmHg 65%
10:00 +18°C° 0 mm 4 m/S 754 mmHg 62%
11:00 +19°C° 0 mm 4 m/S 754 mmHg 60%
12:00 +19°C° 0 mm 4 m/S 754 mmHg 59%
13:00 +20°C° 0 mm 4 m/S 754 mmHg 57%
14:00 +19°C° 0 mm 3 m/S 754 mmHg 62%
15:00 +19°C° 0 mm 3 m/S 753 mmHg 66%
16:00 +18°C° 0 mm 2 m/S 753 mmHg 70%
17:00 +17°C° 0 mm 3 m/S 753 mmHg 72%
18:00 +16°C° 0 mm 3 m/S 753 mmHg 74%
19:00 +16°C° 0 mm 3 m/S 753 mmHg 76%
20:00 +16°C° 0 mm 3 m/S 753 mmHg 75%
21:00 +16°C° 0 mm 3 m/S 753 mmHg 75%
22:00 +14°C° 0 mm 3 m/S 753 mmHg 74%
23:00 +16°C° 0 mm 3 m/S 753 mmHg 74%

übermorgen, 23 Oktober, Freitag

Zeit Temperatur Niederschläge Wind Luftdruck Luftfeuchtigkeit
00:00 +16°C° 0 mm 3 m/S 753 mmHg 74%
01:00 +15°C° 0 mm 4 m/S 753 mmHg 74%
02:00 +16°C° 0 mm 3 m/S 752 mmHg 73%
03:00 +16°C° 0 mm 3 m/S 752 mmHg 71%
04:00 +16°C° 0 mm 3 m/S 752 mmHg 70%
05:00 +16°C° 0 mm 3 m/S 752 mmHg 72%
06:00 +14°C° 0 mm 4 m/S 752 mmHg 73%
07:00 +14°C° 0 mm 4 m/S 752 mmHg 74%
08:00 +15°C° 0 mm 4 m/S 751 mmHg 72%
09:00 +17°C° 0 mm 4 m/S 751 mmHg 71%
10:00 +17°C° 0 mm 5 m/S 751 mmHg 69%
11:00 +18°C° 0 mm 4 m/S 751 mmHg 70%
12:00 +18°C° 0 mm 4 m/S 751 mmHg 70%
13:00 +18°C° 0 mm 3 m/S 750 mmHg 71%
14:00 +17°C° 0 mm 3 m/S 750 mmHg 72%
15:00 +17°C° 0 mm 3 m/S 750 mmHg 74%
16:00 +17°C° 0 mm 3 m/S 750 mmHg 75%
17:00 +17°C° 0.1 mm 3 m/S 750 mmHg 77%
18:00 +16°C° 0.1 mm 3 m/S 750 mmHg 79%
19:00 +16°C° 0.1 mm 3 m/S 750 mmHg 81%
20:00 +14°C° 0.3 mm 3 m/S 751 mmHg 83%
21:00 +14°C° 0.3 mm 3 m/S 751 mmHg 86%
22:00 +14°C° 0.3 mm 3 m/S 751 mmHg 88%
23:00 +14°C° 0.3 mm 4 m/S 751 mmHg 87%

24 Oktober, Samstag

Zeit Temperatur Niederschläge Wind Luftdruck Luftfeuchtigkeit
00:00 +14°C° 0.3 mm 4 m/S 751 mmHg 86%
01:00 +14°C° 0.3 mm 5 m/S 751 mmHg 86%
02:00 +13°C° 0 mm 5 m/S 751 mmHg 87%
03:00 +12°C° 0 mm 5 m/S 751 mmHg 88%
04:00 +12°C° 0 mm 5 m/S 751 mmHg 89%
05:00 +12°C° 0 mm 4 m/S 751 mmHg 89%
06:00 +11°C° 0 mm 4 m/S 751 mmHg 88%
07:00 +11°C° 0 mm 4 m/S 752 mmHg 87%
08:00 +12°C° 0.1 mm 5 m/S 752 mmHg 82%
09:00 +13°C° 0.1 mm 6 m/S 752 mmHg 77%
10:00 +14°C° 0.1 mm 7 m/S 753 mmHg 72%
11:00 +14°C° 0.2 mm 7 m/S 753 mmHg 72%
12:00 +14°C° 0.2 mm 6 m/S 753 mmHg 71%
13:00 +13°C° 0.2 mm 6 m/S 753 mmHg 71%
14:00 +13°C° 0 mm 5 m/S 754 mmHg 70%
15:00 +12°C° 0 mm 5 m/S 754 mmHg 69%
16:00 +12°C° 0 mm 4 m/S 754 mmHg 68%
17:00 +11°C° 0 mm 3 m/S 755 mmHg 71%
18:00 +10°C° 0 mm 2 m/S 755 mmHg 74%
19:00 +9°C° 0 mm 2 m/S 755 mmHg 77%
20:00 +9°C° 0 mm 2 m/S 755 mmHg 79%
21:00 +9°C° 0 mm 2 m/S 756 mmHg 80%
22:00 +8°C° 0 mm 2 m/S 756 mmHg 82%
23:00 +8°C° 0 mm 2 m/S 755 mmHg 84%

25 Oktober, Sonntag

Zeit Temperatur Niederschläge Wind Luftdruck Luftfeuchtigkeit
00:00 +8°C° 0 mm 2 m/S 755 mmHg 86%
01:00 +8°C° 0 mm 2 m/S 755 mmHg 87%
02:00 +8°C° 0 mm 3 m/S 755 mmHg 89%
03:00 +8°C° 0 mm 3 m/S 755 mmHg 90%
04:00 +8°C° 0 mm 3 m/S 755 mmHg 91%
05:00 +8°C° 0 mm 3 m/S 754 mmHg 90%
06:00 +8°C° 0 mm 3 m/S 754 mmHg 89%
07:00 +8°C° 0 mm 3 m/S 754 mmHg 88%
08:00 +10°C° 0 mm 3 m/S 754 mmHg 83%
09:00 +11°C° 0 mm 4 m/S 754 mmHg 77%
10:00 +13°C° 0 mm 4 m/S 753 mmHg 71%
11:00 +14°C° 0 mm 4 m/S 753 mmHg 67%
12:00 +15°C° 0 mm 4 m/S 752 mmHg 64%
13:00 +17°C° 0 mm 4 m/S 752 mmHg 60%
14:00 +17°C° 0 mm 4 m/S 751 mmHg 63%
15:00 +16°C° 0 mm 3 m/S 751 mmHg 66%
16:00 +16°C° 0 mm 3 m/S 751 mmHg 69%
17:00 +14°C° 0 mm 3 m/S 750 mmHg 72%
18:00 +13°C° 0 mm 4 m/S 750 mmHg 75%
19:00 +12°C° 0 mm 4 m/S 750 mmHg 78%
20:00 +12°C° 0 mm 4 m/S 750 mmHg 80%
21:00 +12°C° 0 mm 4 m/S 750 mmHg 81%
22:00 +12°C° 0 mm 4 m/S 750 mmHg 83%
23:00 +11°C° 0 mm 4 m/S 750 mmHg 83%

26 Oktober, Montag

Zeit Temperatur Niederschläge Wind Luftdruck Luftfeuchtigkeit
00:00 +11°C° 0 mm 4 m/S 750 mmHg 84%
01:00 +11°C° 0 mm 4 m/S 750 mmHg 85%
02:00 +11°C° 0 mm 4 m/S 749 mmHg 85%
03:00 +10°C° 0 mm 4 m/S 749 mmHg 85%
04:00 +10°C° 0 mm 4 m/S 749 mmHg 85%
05:00 +10°C° 0 mm 4 m/S 749 mmHg 86%
06:00 +8°C° 0 mm 4 m/S 749 mmHg 87%
07:00 +8°C° 0 mm 4 m/S 749 mmHg 88%
08:00 +11°C° 0 mm 4 m/S 749 mmHg 82%
09:00 +12°C° 0 mm 5 m/S 749 mmHg 75%
10:00 +14°C° 0 mm 6 m/S 748 mmHg 68%
11:00 +14°C° 0 mm 5 m/S 748 mmHg 69%
12:00 +14°C° 0 mm 4 m/S 748 mmHg 70%
13:00 +15°C° 0 mm 2 m/S 748 mmHg 71%
14:00 +15°C° 0 mm 2 m/S 748 mmHg 74%
15:00 +14°C° 0 mm 2 m/S 748 mmHg 77%
16:00 +14°C° 0 mm 2 m/S 747 mmHg 80%
17:00 +13°C° 0 mm 2 m/S 747 mmHg 82%
18:00 +13°C° 0 mm 2 m/S 748 mmHg 83%
19:00 +13°C° 0 mm 2 m/S 748 mmHg 85%
20:00 +13°C° 0.1 mm 1 m/S 748 mmHg 86%
21:00 +12°C° 0.1 mm 1 m/S 748 mmHg 88%
22:00 +12°C° 0.1 mm 1 m/S 748 mmHg 90%
23:00 +12°C° 0.1 mm 1 m/S 748 mmHg 91%

27 Oktober, Dienstag

Zeit Temperatur Niederschläge Wind Luftdruck Luftfeuchtigkeit
00:00 +12°C° 0.1 mm 1 m/S 748 mmHg 92%
01:00 +10°C° 0.1 mm 2 m/S 748 mmHg 94%
02:00 +10°C° 0 mm 2 m/S 749 mmHg 94%
03:00 +10°C° 0 mm 2 m/S 749 mmHg 94%
04:00 +10°C° 0 mm 2 m/S 749 mmHg 94%
05:00 +10°C° 0 mm 2 m/S 749 mmHg 94%
06:00 +10°C° 0 mm 2 m/S 750 mmHg 95%
07:00 +10°C° 0 mm 2 m/S 750 mmHg 95%
08:00 +10°C° 0 mm 2 m/S 751 mmHg 91%
09:00 +12°C° 0 mm 2 m/S 751 mmHg 88%
10:00 +13°C° 0 mm 2 m/S 751 mmHg 85%
11:00 +13°C° 0 mm 2 m/S 752 mmHg 82%
12:00 +14°C° 0 mm 2 m/S 752 mmHg 79%
13:00 +14°C° 0 mm 1 m/S 752 mmHg 76%
14:00 +14°C° 0 mm 1 m/S 752 mmHg 78%
15:00 +14°C° 0 mm 1 m/S 753 mmHg 79%
16:00 +13°C° 0 mm 1 m/S 753 mmHg 81%
17:00 +13°C° 0 mm 1 m/S 753 mmHg 83%
18:00 +12°C° 0 mm 1 m/S 754 mmHg 85%
19:00 +12°C° 0 mm 1 m/S 754 mmHg 87%
20:00 +10°C° 0 mm 0 m/S 754 mmHg 88%
21:00 +10°C° 0 mm 0 m/S 755 mmHg 89%
22:00 +9°C° 0 mm 0 m/S 755 mmHg 91%
23:00 +9°C° 0 mm 0 m/S 755 mmHg 91%
Mehr zeigen

Wir brauchen deine Erlaubnis

Meteoprog und unser Service Anbieter werden persönliche Daten aufbewahren, so wie Cookies, Geräte Bezeichnung oder ähnliche Technologien von deinem Gerät und Prozess, so wie Persönliche Daten Inhalte und Werbungen, genauso wie social Media und den Verkehr zu analysieren.

  • Aufbewahrung und/oder Zugang zu deiner Geräte Informationen.

    Cookies, Geräte Bezeichnung oder andere Informationen, können aufbewahrt oder Zugang zu deinem Gerät erhalten, für den Grund, der oben angegeben wird.

  • Personalisierte Werbung und Inhalte, Messungen, Einblick in das Publikum und Produkt Entwicklung.

    Werbungen und Inhalte können personalisiert werden, basierend auf ein Profil. Mehr Daten können besser personalisierte Werbungen und Inhalte hinzufügen. Werbung und Inhalte können gezeigt und gemessen werden. Einblicke über das Publikum, welche die Werbung gesehen haben und den Inhalt, können abgeleitet werden. So wie Daten können genutzt werden, um es zu verbessern oder die Benutzer Erfahrung zu verbessern das System und die Software.

Wenn du “Ich stimme zu” klickst, erlaubst du uns, die Cookies zu benutzen die Geräte Bezeichnung, den Web oder ähnliche Technologien zu benutzen. Deine Settings, können in deinem Gerät bei deinem Browser geändert werden.

Für den bestimmten Zweck, berechtigten Interessen beruhen darauf, mehr als auf den Inhalt. Du kannst mehr darüber in unseren Privaten und Cookie Politik lesen.